Terminal Aerodrome Forecast
Issued by NWS

Home | Current Version | Previous Version | Text Only | Print | Product List | Glossary On
Versions: 1 2 3 4 5 6 7 8 9 10 11 12 13 14 15 16
000
FTUS42 KTAE 301400 AAC
TAFABY
TAF AMD
KABY 301456Z 3015/3112 09003KT P6SM SCT010 BKN021
     FM301800 20007KT P6SM VCTS SCT035CB BKN050
      TEMPO 3020/3024 5SM TSRA BKN035CB
     FM310000 19004KT P6SM SCT250=

USA.gov is the U.S. government's official web portal to all federal, state and local government web resources and services.